Starlink 1134

operational
NORAD ID: 45048 Int'l Des: 2020-006 Owner: SPXS Country: US Constellation: starlink
LEOCIRCULAR

关于 Starlink 1134

正在加载描述...

实时位置

正在加载3D地球...

即将过境

高度历史

Altitude vs Time

uPlot chart will show altitude changes over time

两行轨道根数

1 45048U 20006E 26036.28119276 .00147523 00000-0 36200-2 0 9997
2 45048 53.0350 31.9802 0007130 70.5634 289.6139 15.39658901332146
Epoch: Feb 5, 2026 • Age: 9 hours

当前状态

高度 467.0 km
速度 7.63 km/s
星下点 -48.22°S, 39.47°W
发射日期 Jan 29, 2020
运行时间 6 years
类型 internet

技术详情

分类 Payload
质量 260.00 kg
干质量 248.00 kg
总质量 260.00 kg
长度 0.20 m
直径 2.80 m
跨度 9.00 m
形状 Box + pan
制造商 SPXS
平台类型 Starlink
阶段状态 In Orbit
所有者/国家 SPXS/US

大型星座

Loading constellations...